Time,TemperatureF,DewpointF,PressureIn,WindDirection,WindDirectionDegrees,WindSpeedMPH,WindSpeedGustMPH,Humidity,HourlyPrecipIn,Conditions,Clouds,dailyrainin,SoftwareType,DateUTC
2013-10-26 00:01:00,40.6,29.0,30.02,NNW,333,6.0,7.0,63,0.00,,,0.00,Wunderground v.1.15,2013-10-26 05:01:00,
2013-10-26 00:11:00,40.6,29.0,30.03,NW,314,6.0,13.0,63,0.00,,,0.00,Wunderground v.1.15,2013-10-26 05:11:00,
2013-10-26 00:16:00,40.5,29.3,30.03,NNW,327,7.0,13.0,64,0.00,,,0.00,Wunderground v.1.15,2013-10-26 05:16:00,
2013-10-26 00:26:00,40.2,29.4,30.03,NW,306,7.0,7.0,65,0.00,,,0.00,Wunderground v.1.15,2013-10-26 05:26:00,
2013-10-26 00:31:00,40.2,29.4,30.04,NNW,336,7.0,7.0,65,0.00,,,0.00,Wunderground v.1.15,2013-10-26 05:31:00,
2013-10-26 00:36:00,40.1,29.3,30.04,NNW,342,6.0,7.0,65,0.00,,,0.00,Wunderground v.1.15,2013-10-26 05:36:00,
2013-10-26 00:41:00,39.8,29.4,30.04,NNW,329,5.0,5.0,66,0.00,,,0.00,Wunderground v.1.15,2013-10-26 05:41:00,
2013-10-26 00:46:00,39.5,29.1,30.04,NW,313,6.0,6.0,66,0.00,,,0.00,Wunderground v.1.15,2013-10-26 05:46:00,
2013-10-26 00:51:00,39.2,29.2,30.04,NW,321,6.0,6.0,67,0.00,,,0.00,Wunderground v.1.15,2013-10-26 05:51:00,
2013-10-26 00:56:00,39.0,29.3,30.04,NNW,331,6.0,6.0,68,0.00,,,0.00,Wunderground v.1.15,2013-10-26 05:56:00,
2013-10-26 01:01:00,38.7,29.0,30.05,NW,317,6.0,6.0,68,0.00,,,0.00,Wunderground v.1.15,2013-10-26 06:01:00,
2013-10-26 01:11:00,38.4,29.1,30.05,NW,317,7.0,7.0,69,0.00,,,0.00,Wunderground v.1.15,2013-10-26 06:11:00,
2013-10-26 01:16:00,38.3,29.4,30.05,NW,323,6.0,7.0,70,0.00,,,0.00,Wunderground v.1.15,2013-10-26 06:16:00,
2013-10-26 01:25:00,37.9,29.0,30.05,NNW,344,6.0,11.0,70,0.00,,,0.00,Wunderground v.1.15,2013-10-26 06:25:00,
2013-10-26 01:31:00,37.7,29.1,30.05,NW,321,6.0,6.0,71,0.00,,,0.00,Wunderground v.1.15,2013-10-26 06:31:00,
2013-10-26 01:36:00,37.4,28.9,30.05,NW,320,6.0,6.0,71,0.00,,,0.00,Wunderground v.1.15,2013-10-26 06:36:00,
2013-10-26 01:41:00,37.2,29.0,30.06,North,355,5.0,5.0,72,0.00,,,0.00,Wunderground v.1.15,2013-10-26 06:41:00,
2013-10-26 01:46:00,36.9,28.7,30.07,NW,315,4.0,5.0,72,0.00,,,0.00,Wunderground v.1.15,2013-10-26 06:46:00,
2013-10-26 01:51:00,36.6,28.8,30.07,NW,325,3.0,3.0,73,0.00,,,0.00,Wunderground v.1.15,2013-10-26 06:51:00,
2013-10-26 01:56:00,36.4,28.6,30.07,NW,321,3.0,3.0,73,0.00,,,0.00,Wunderground v.1.15,2013-10-26 06:56:00,
2013-10-26 02:01:00,36.1,28.6,30.07,NW,319,2.0,3.0,74,0.00,,,0.00,Wunderground v.1.15,2013-10-26 07:01:00,
2013-10-26 02:11:00,35.5,28.0,30.07,NNW,327,2.0,2.0,74,0.00,,,0.00,Wunderground v.1.15,2013-10-26 07:11:00,
2013-10-26 02:16:00,35.2,28.1,30.07,NW,321,2.0,2.0,75,0.00,,,0.00,Wunderground v.1.15,2013-10-26 07:16:00,
2013-10-26 02:21:00,34.9,28.1,30.08,NNW,329,2.0,5.0,76,0.00,,,0.00,Wunderground v.1.15,2013-10-26 07:21:00,
2013-10-26 02:26:00,34.7,27.9,30.08,NNW,338,3.0,5.0,76,0.00,,,0.00,Wunderground v.1.15,2013-10-26 07:26:00,
2013-10-26 02:31:00,34.5,28.0,30.07,NNW,336,3.0,3.0,77,0.00,,,0.00,Wunderground v.1.15,2013-10-26 07:31:00,
2013-10-26 02:36:00,34.4,27.6,30.08,NW,324,3.0,3.0,76,0.00,,,0.00,Wunderground v.1.15,2013-10-26 07:36:00,
2013-10-26 02:46:00,34.1,27.6,30.08,NW,320,4.0,4.0,77,0.00,,,0.00,Wunderground v.1.15,2013-10-26 07:46:00,
2013-10-26 02:51:00,33.8,27.4,30.08,NNW,329,3.0,3.0,77,0.00,,,0.00,Wunderground v.1.15,2013-10-26 07:51:00,
2013-10-26 02:56:00,33.5,27.1,30.08,NW,323,2.0,3.0,77,0.00,,,0.00,Wunderground v.1.15,2013-10-26 07:56:00,
2013-10-26 03:01:00,33.2,26.8,30.08,NNW,327,3.0,3.0,77,0.00,,,0.00,Wunderground v.1.15,2013-10-26 08:01:00,
2013-10-26 03:10:00,32.9,26.5,30.09,NW,308,4.0,4.0,77,0.00,,,0.00,Wunderground v.1.15,2013-10-26 08:10:00,
2013-10-26 03:15:00,32.8,26.4,30.09,NNW,338,4.0,4.0,77,0.00,,,0.00,Wunderground v.1.15,2013-10-26 08:15:00,
2013-10-26 03:21:00,32.6,26.5,30.09,NNW,329,4.0,5.0,78,0.00,,,0.00,Wunderground v.1.15,2013-10-26 08:21:00,
2013-10-26 03:31:00,32.2,26.4,30.09,NW,325,3.0,5.0,79,0.00,,,0.00,Wunderground v.1.15,2013-10-26 08:31:00,
2013-10-26 03:36:00,31.9,26.1,30.09,NW,323,2.0,5.0,79,0.00,,,0.00,Wunderground v.1.15,2013-10-26 08:36:00,
2013-10-26 03:41:00,31.7,26.2,30.10,NW,323,1.0,1.0,80,0.00,,,0.00,Wunderground v.1.15,2013-10-26 08:41:00,
2013-10-26 03:46:00,31.4,25.9,30.10,NW,318,1.0,1.0,80,0.00,,,0.00,Wunderground v.1.15,2013-10-26 08:46:00,
2013-10-26 03:55:00,31.1,26.0,30.10,NW,314,1.0,4.0,81,0.00,,,0.00,Wunderground v.1.15,2013-10-26 08:55:00,
2013-10-26 04:01:00,31.2,26.0,30.10,NW,315,2.0,4.0,81,0.00,,,0.00,Wunderground v.1.15,2013-10-26 09:01:00,
2013-10-26 04:11:00,31.0,25.9,30.10,NW,322,2.0,3.0,81,0.00,,,0.00,Wunderground v.1.15,2013-10-26 09:11:00,
2013-10-26 04:21:00,30.7,25.6,30.11,NW,307,2.0,2.0,81,0.00,,,0.00,Wunderground v.1.15,2013-10-26 09:21:00,
2013-10-26 04:26:00,30.6,25.5,30.11,NW,309,1.0,2.0,81,0.00,,,0.00,Wunderground v.1.15,2013-10-26 09:26:00,
2013-10-26 04:31:00,30.4,25.6,30.11,West,263,1.0,1.0,82,0.00,,,0.00,Wunderground v.1.15,2013-10-26 09:31:00,
2013-10-26 04:41:00,30.5,25.7,30.12,NW,319,1.0,3.0,82,0.00,,,0.00,Wunderground v.1.15,2013-10-26 09:41:00,
2013-10-26 04:46:00,30.6,25.8,30.12,WNW,302,1.0,3.0,82,0.00,,,0.00,Wunderground v.1.15,2013-10-26 09:46:00,
2013-10-26 04:51:00,30.6,25.8,30.12,WNW,302,1.0,1.0,82,0.00,,,0.00,Wunderground v.1.15,2013-10-26 09:51:00,
2013-10-26 05:01:00,30.3,25.8,30.12,WNW,297,1.0,1.0,83,0.00,,,0.00,Wunderground v.1.15,2013-10-26 10:01:00,
2013-10-26 05:11:00,29.9,25.4,30.12,NW,304,0.0,0.0,83,0.00,,,0.00,Wunderground v.1.15,2013-10-26 10:11:00,
2013-10-26 05:16:00,29.6,25.4,30.13,WNW,303,0.0,0.0,84,0.00,,,0.00,Wunderground v.1.15,2013-10-26 10:16:00,
2013-10-26 05:21:00,29.4,25.2,30.13,NW,304,1.0,1.0,84,0.00,,,0.00,Wunderground v.1.15,2013-10-26 10:21:00,
2013-10-26 05:31:00,29.1,25.2,30.13,NW,307,0.0,1.0,85,0.00,,,0.00,Wunderground v.1.15,2013-10-26 10:31:00,
2013-10-26 05:36:00,28.9,25.0,30.13,NW,307,0.0,1.0,85,0.00,,,0.00,Wunderground v.1.15,2013-10-26 10:36:00,
2013-10-26 05:41:00,28.8,24.9,30.14,NW,306,1.0,1.0,85,0.00,,,0.00,Wunderground v.1.15,2013-10-26 10:41:00,
2013-10-26 05:46:00,28.7,24.8,30.14,NW,307,1.0,1.0,85,0.00,,,0.00,Wunderground v.1.15,2013-10-26 10:46:00,
2013-10-26 05:51:00,28.6,24.9,30.14,NW,309,0.0,0.0,86,0.00,,,0.00,Wunderground v.1.15,2013-10-26 10:51:00,
2013-10-26 05:56:00,28.5,24.8,30.14,WNW,286,1.0,1.0,86,0.00,,,0.00,Wunderground v.1.15,2013-10-26 10:56:00,
2013-10-26 06:01:00,28.4,24.7,30.14,WNW,302,1.0,1.0,86,0.00,,,0.00,Wunderground v.1.15,2013-10-26 11:01:00,
2013-10-26 06:11:00,28.3,24.6,30.14,WNW,288,1.0,2.0,86,0.00,,,0.00,Wunderground v.1.15,2013-10-26 11:11:00,
2013-10-26 06:20:00,28.2,24.8,30.15,WNW,300,1.0,1.0,87,0.00,,,0.00,Wunderground v.1.15,2013-10-26 11:20:00,
2013-10-26 06:26:00,28.1,24.7,30.14,West,277,1.0,2.0,87,0.00,,,0.00,Wunderground v.1.15,2013-10-26 11:26:00,
2013-10-26 06:31:00,28.0,24.6,30.14,NW,309,1.0,2.0,87,0.00,,,0.00,Wunderground v.1.15,2013-10-26 11:31:00,
2013-10-26 06:36:00,27.9,24.5,30.14,West,275,1.0,2.0,87,0.00,,,0.00,Wunderground v.1.15,2013-10-26 11:36:00,
2013-10-26 06:41:00,27.7,24.3,30.15,NW,304,1.0,2.0,87,0.00,,,0.00,Wunderground v.1.15,2013-10-26 11:41:00,
2013-10-26 06:46:00,27.5,24.1,30.15,NW,304,1.0,2.0,87,0.00,,,0.00,Wunderground v.1.15,2013-10-26 11:46:00,
2013-10-26 06:56:00,27.2,23.8,30.15,NW,321,1.0,1.0,87,0.00,,,0.00,Wunderground v.1.15,2013-10-26 11:56:00,
2013-10-26 07:01:00,27.1,23.7,30.15,NW,321,0.0,1.0,87,0.00,,,0.00,Wunderground v.1.15,2013-10-26 12:01:00,
2013-10-26 07:10:00,27.1,24.0,30.15,WNW,286,2.0,2.0,88,0.00,,,0.00,Wunderground v.1.15,2013-10-26 12:10:00,
2013-10-26 07:16:00,27.2,24.1,30.15,WNW,289,1.0,2.0,88,0.00,,,0.00,Wunderground v.1.15,2013-10-26 12:16:00,
2013-10-26 07:21:00,27.4,24.3,30.15,WNW,292,1.0,1.0,88,0.00,,,0.00,Wunderground v.1.15,2013-10-26 12:21:00,
2013-10-26 07:26:00,27.5,24.4,30.16,NW,311,1.0,3.0,88,0.00,,,0.00,Wunderground v.1.15,2013-10-26 12:26:00,
2013-10-26 07:31:00,27.3,23.9,30.16,NW,317,1.0,1.0,87,0.00,,,0.00,Wunderground v.1.15,2013-10-26 12:31:00,
2013-10-26 07:36:00,27.2,23.8,30.16,WNW,302,1.0,1.0,87,0.00,,,0.00,Wunderground v.1.15,2013-10-26 12:36:00,
2013-10-26 07:46:00,26.8,23.4,30.17,NW,313,1.0,2.0,87,0.00,,,0.00,Wunderground v.1.15,2013-10-26 12:46:00,
2013-10-26 07:51:00,26.7,23.4,30.17,NW,322,1.0,3.0,87,0.00,,,0.00,Wunderground v.1.15,2013-10-26 12:51:00,
2013-10-26 07:56:00,26.6,23.3,30.17,NW,325,2.0,3.0,87,0.00,,,0.00,Wunderground v.1.15,2013-10-26 12:56:00,
2013-10-26 08:01:00,26.6,23.3,30.17,NNW,335,1.0,1.0,87,0.00,,,0.00,Wunderground v.1.15,2013-10-26 13:01:00,
2013-10-26 08:11:00,26.6,23.5,30.17,NW,322,1.0,1.0,88,0.00,,,0.00,Wunderground v.1.15,2013-10-26 13:11:00,
2013-10-26 08:21:00,26.7,23.6,30.17,NW,310,1.0,1.0,88,0.00,,,0.00,Wunderground v.1.15,2013-10-26 13:21:00,
2013-10-26 08:26:00,26.7,23.6,30.16,NNW,332,1.0,1.0,88,0.00,,,0.00,Wunderground v.1.15,2013-10-26 13:26:00,
2013-10-26 08:31:00,26.6,23.5,30.17,NNW,327,1.0,1.0,88,0.00,,,0.00,Wunderground v.1.15,2013-10-26 13:31:00,
2013-10-26 08:36:00,26.5,23.4,30.17,WNW,284,1.0,1.0,88,0.00,,,0.00,Wunderground v.1.15,2013-10-26 13:36:00,
2013-10-26 08:46:00,26.7,23.6,30.18,NW,311,1.0,4.0,88,0.00,,,0.00,Wunderground v.1.15,2013-10-26 13:46:00,
2013-10-26 08:56:00,27.2,24.1,30.17,West,279,1.0,1.0,88,0.00,,,0.00,Wunderground v.1.15,2013-10-26 13:56:00,
2013-10-26 09:01:00,27.5,24.4,30.17,West,272,1.0,4.0,88,0.00,,,0.00,Wunderground v.1.15,2013-10-26 14:01:00,
2013-10-26 09:11:00,28.1,24.7,30.18,WNW,288,2.0,2.0,87,0.00,,,0.00,Wunderground v.1.15,2013-10-26 14:11:00,
2013-10-26 09:16:00,28.6,25.2,30.18,WNW,298,1.0,4.0,87,0.00,,,0.00,Wunderground v.1.15,2013-10-26 14:16:00,
2013-10-26 09:26:00,29.8,26.1,30.18,West,263,3.0,7.0,86,0.00,,,0.00,Wunderground v.1.15,2013-10-26 14:26:00,
2013-10-26 09:31:00,30.2,26.2,30.18,NW,319,3.0,3.0,85,0.00,,,0.00,Wunderground v.1.15,2013-10-26 14:31:00,
2013-10-26 09:36:00,30.5,26.2,30.19,NNW,333,2.0,3.0,84,0.00,,,0.00,Wunderground v.1.15,2013-10-26 14:36:00,
2013-10-26 09:41:00,30.7,26.4,30.19,West,264,2.0,2.0,84,0.00,,,0.00,Wunderground v.1.15,2013-10-26 14:41:00,
2013-10-26 09:46:00,31.1,26.8,30.19,NW,311,2.0,3.0,84,0.00,,,0.00,Wunderground v.1.15,2013-10-26 14:46:00,
2013-10-26 09:56:00,31.9,27.0,30.19,NW,321,3.0,5.0,82,0.00,,,0.00,Wunderground v.1.15,2013-10-26 14:56:00,
2013-10-26 10:01:00,32.2,27.0,30.19,WNW,288,3.0,6.0,81,0.00,,,0.00,Wunderground v.1.15,2013-10-26 15:01:00,
2013-10-26 10:11:00,32.7,27.2,30.20,WNW,300,3.0,3.0,80,0.00,,,0.00,Wunderground v.1.15,2013-10-26 15:11:00,
2013-10-26 10:16:00,33.1,27.3,30.20,WNW,292,3.0,3.0,79,0.00,,,0.00,Wunderground v.1.15,2013-10-26 15:16:00,
2013-10-26 10:25:00,33.7,27.6,30.20,NW,323,4.0,9.0,78,0.00,,,0.00,Wunderground v.1.15,2013-10-26 15:25:00,
2013-10-26 10:31:00,34.1,27.6,30.20,NW,310,4.0,10.0,77,0.00,,,0.00,Wunderground v.1.15,2013-10-26 15:31:00,
2013-10-26 10:40:00,35.1,28.3,30.19,NNW,327,3.0,3.0,76,0.00,,,0.00,Wunderground v.1.15,2013-10-26 15:40:00,
2013-10-26 10:46:00,35.2,27.7,30.19,WNW,284,4.0,6.0,74,0.00,,,0.00,Wunderground v.1.15,2013-10-26 15:46:00,
2013-10-26 10:51:00,35.3,27.8,30.19,NNW,327,4.0,11.0,74,0.00,,,0.00,Wunderground v.1.15,2013-10-26 15:51:00,
2013-10-26 10:56:00,35.6,27.8,30.19,NW,307,4.0,11.0,73,0.00,,,0.00,Wunderground v.1.15,2013-10-26 15:56:00,
2013-10-26 11:01:00,35.8,27.7,30.19,NNW,338,5.0,5.0,72,0.00,,,0.00,Wunderground v.1.15,2013-10-26 16:01:00,
2013-10-26 11:11:00,36.3,28.1,30.19,NNW,329,5.0,5.0,72,0.00,,,0.00,Wunderground v.1.15,2013-10-26 16:11:00,
2013-10-26 11:16:00,36.7,28.2,30.19,NW,322,4.0,5.0,71,0.00,,,0.00,Wunderground v.1.15,2013-10-26 16:16:00,
2013-10-26 11:21:00,37.1,28.2,30.19,NNW,332,3.0,4.0,70,0.00,,,0.00,Wunderground v.1.15,2013-10-26 16:21:00,
2013-10-26 11:26:00,37.5,27.9,30.19,NW,313,5.0,5.0,68,0.00,,,0.00,Wunderground v.1.15,2013-10-26 16:26:00,
2013-10-26 11:36:00,37.6,27.6,30.19,NNW,341,5.0,9.0,67,0.00,,,0.00,Wunderground v.1.15,2013-10-26 16:36:00,
2013-10-26 11:46:00,38.0,28.0,30.19,NNW,341,5.0,7.0,67,0.00,,,0.00,Wunderground v.1.15,2013-10-26 16:46:00,
2013-10-26 11:51:00,38.3,28.3,30.19,NW,321,4.0,4.0,67,0.00,,,0.00,Wunderground v.1.15,2013-10-26 16:51:00,
2013-10-26 11:56:00,38.3,27.9,30.19,NW,321,4.0,6.0,66,0.00,,,0.00,Wunderground v.1.15,2013-10-26 16:56:00,
2013-10-26 12:01:00,38.7,27.9,30.19,NW,323,4.0,5.0,65,0.00,,,0.00,Wunderground v.1.15,2013-10-26 17:01:00,
2013-10-26 12:11:00,38.7,27.9,30.18,North,355,3.0,3.0,65,0.00,,,0.00,Wunderground v.1.15,2013-10-26 17:11:00,
2013-10-26 12:16:00,39.2,27.7,30.18,NNW,340,3.0,3.0,63,0.00,,,0.00,Wunderground v.1.15,2013-10-26 17:16:00,
2013-10-26 12:21:00,39.6,27.6,30.18,NNW,327,3.0,4.0,62,0.00,,,0.00,Wunderground v.1.15,2013-10-26 17:21:00,
2013-10-26 12:26:00,39.8,27.4,30.18,NW,306,4.0,4.0,61,0.00,,,0.00,Wunderground v.1.15,2013-10-26 17:26:00,
2013-10-26 12:36:00,39.9,27.5,30.18,NNW,346,3.0,4.0,61,0.00,,,0.00,Wunderground v.1.15,2013-10-26 17:36:00,
2013-10-26 12:41:00,40.1,27.3,30.18,NW,323,4.0,4.0,60,0.00,,,0.00,Wunderground v.1.15,2013-10-26 17:41:00,
2013-10-26 12:46:00,40.3,27.5,30.18,NW,323,4.0,5.0,60,0.00,,,0.00,Wunderground v.1.15,2013-10-26 17:46:00,
2013-10-26 12:51:00,40.3,27.1,30.17,NNW,330,4.0,6.0,59,0.00,,,0.00,Wunderground v.1.15,2013-10-26 17:51:00,
2013-10-26 12:56:00,40.4,26.8,30.17,NNW,342,4.0,6.0,58,0.00,,,0.00,Wunderground v.1.15,2013-10-26 17:56:00,
2013-10-26 13:01:00,40.4,26.8,30.17,WNW,294,3.0,3.0,58,0.00,,,0.00,Wunderground v.1.15,2013-10-26 18:01:00,
2013-10-26 13:11:00,40.4,27.2,30.17,West,280,4.0,4.0,59,0.00,,,0.00,Wunderground v.1.15,2013-10-26 18:11:00,
2013-10-26 13:16:00,40.5,26.9,30.16,NW,325,4.0,4.0,58,0.00,,,0.00,Wunderground v.1.15,2013-10-26 18:16:00,
2013-10-26 13:21:00,40.5,26.4,30.17,WNW,298,4.0,4.0,57,0.00,,,0.00,Wunderground v.1.15,2013-10-26 18:21:00,
2013-10-26 13:26:00,40.7,27.1,30.16,NNW,337,4.0,4.0,58,0.00,,,0.00,Wunderground v.1.15,2013-10-26 18:26:00,
2013-10-26 13:31:00,40.9,27.2,30.16,NNW,334,4.0,4.0,58,0.00,,,0.00,Wunderground v.1.15,2013-10-26 18:31:00,
2013-10-26 13:41:00,41.1,27.0,30.16,NW,306,3.0,3.0,57,0.00,,,0.00,Wunderground v.1.15,2013-10-26 18:41:00,
2013-10-26 13:46:00,41.0,26.1,30.16,WNW,285,3.0,4.0,55,0.00,,,0.00,Wunderground v.1.15,2013-10-26 18:46:00,
2013-10-26 13:51:00,41.0,26.5,30.16,WNW,292,3.0,3.0,56,0.00,,,0.00,Wunderground v.1.15,2013-10-26 18:51:00,
2013-10-26 13:56:00,41.0,26.5,30.16,West,273,3.0,3.0,56,0.00,,,0.00,Wunderground v.1.15,2013-10-26 18:56:00,
2013-10-26 14:01:00,41.1,27.0,30.15,NW,321,3.0,3.0,57,0.00,,,0.00,Wunderground v.1.15,2013-10-26 19:01:00,
2013-10-26 14:11:00,41.6,27.1,30.15,West,278,3.0,3.0,56,0.00,,,0.00,Wunderground v.1.15,2013-10-26 19:11:00,
2013-10-26 14:16:00,41.8,26.8,30.14,WNW,300,3.0,3.0,55,0.00,,,0.00,Wunderground v.1.15,2013-10-26 19:16:00,
2013-10-26 14:21:00,42.0,27.0,30.14,WNW,296,4.0,4.0,55,0.00,,,0.00,Wunderground v.1.15,2013-10-26 19:21:00,
2013-10-26 14:26:00,42.3,26.8,30.14,WSW,238,3.0,5.0,54,0.00,,,0.00,Wunderground v.1.15,2013-10-26 19:26:00,
2013-10-26 14:31:00,42.4,27.4,30.13,NNW,333,4.0,4.0,55,0.00,,,0.00,Wunderground v.1.15,2013-10-26 19:31:00,
2013-10-26 14:36:00,42.4,26.5,30.13,NW,325,3.0,4.0,53,0.00,,,0.00,Wunderground v.1.15,2013-10-26 19:36:00,
2013-10-26 14:41:00,42.3,26.4,30.12,West,267,3.0,3.0,53,0.00,,,0.00,Wunderground v.1.15,2013-10-26 19:41:00,
2013-10-26 14:51:00,42.6,27.1,30.12,West,260,2.0,2.0,54,0.00,,,0.00,Wunderground v.1.15,2013-10-26 19:51:00,
2013-10-26 14:56:00,42.8,26.8,30.12,West,268,3.0,3.0,53,0.00,,,0.00,Wunderground v.1.15,2013-10-26 19:56:00,
2013-10-26 15:01:00,42.7,27.2,30.12,WNW,294,3.0,3.0,54,0.00,,,0.00,Wunderground v.1.15,2013-10-26 20:01:00,
2013-10-26 15:11:00,42.7,27.2,30.12,West,261,3.0,3.0,54,0.00,,,0.00,Wunderground v.1.15,2013-10-26 20:11:00,
2013-10-26 15:16:00,42.8,26.8,30.12,WSW,238,3.0,3.0,53,0.00,,,0.00,Wunderground v.1.15,2013-10-26 20:16:00,
2013-10-26 15:21:00,42.9,26.5,30.11,WSW,249,3.0,3.0,52,0.00,,,0.00,Wunderground v.1.15,2013-10-26 20:21:00,
2013-10-26 15:26:00,43.0,27.5,30.11,WSW,252,3.0,3.0,54,0.00,,,0.00,Wunderground v.1.15,2013-10-26 20:26:00,
2013-10-26 15:31:00,43.4,28.3,30.11,West,277,2.0,3.0,55,0.00,,,0.00,Wunderground v.1.15,2013-10-26 20:31:00,
2013-10-26 15:41:00,43.8,28.2,30.11,WSW,257,3.0,4.0,54,0.00,,,0.00,Wunderground v.1.15,2013-10-26 20:41:00,
2013-10-26 15:51:00,43.9,27.4,30.11,WSW,238,3.0,3.0,52,0.00,,,0.00,Wunderground v.1.15,2013-10-26 20:51:00,
2013-10-26 15:56:00,43.8,27.3,30.10,WSW,246,3.0,3.0,52,0.00,,,0.00,Wunderground v.1.15,2013-10-26 20:56:00,
2013-10-26 16:01:00,43.7,27.7,30.10,West,267,2.0,2.0,53,0.00,,,0.00,Wunderground v.1.15,2013-10-26 21:01:00,
2013-10-26 16:11:00,44.0,27.0,30.09,West,271,4.0,6.0,51,0.00,,,0.00,Wunderground v.1.15,2013-10-26 21:11:00,
2013-10-26 16:16:00,43.8,26.8,30.09,WNW,300,4.0,6.0,51,0.00,,,0.00,Wunderground v.1.15,2013-10-26 21:16:00,
2013-10-26 16:25:00,43.9,26.9,30.08,SW,225,3.0,4.0,51,0.00,,,0.00,Wunderground v.1.15,2013-10-26 21:25:00,
2013-10-26 16:31:00,44.0,26.5,30.08,West,260,3.0,3.0,50,0.00,,,0.00,Wunderground v.1.15,2013-10-26 21:31:00,
2013-10-26 16:36:00,44.0,26.5,30.08,West,276,3.0,3.0,50,0.00,,,0.00,Wunderground v.1.15,2013-10-26 21:36:00,
2013-10-26 16:41:00,44.0,26.5,30.07,West,263,4.0,4.0,50,0.00,,,0.00,Wunderground v.1.15,2013-10-26 21:41:00,
2013-10-26 16:46:00,44.0,26.5,30.07,WNW,284,4.0,4.0,50,0.00,,,0.00,Wunderground v.1.15,2013-10-26 21:46:00,
2013-10-26 16:56:00,44.2,27.2,30.07,West,273,4.0,7.0,51,0.00,,,0.00,Wunderground v.1.15,2013-10-26 21:56:00,
2013-10-26 17:01:00,44.2,27.2,30.07,WSW,238,3.0,3.0,51,0.00,,,0.00,Wunderground v.1.15,2013-10-26 22:01:00,
2013-10-26 17:11:00,44.0,27.5,30.06,West,259,4.0,4.0,52,0.00,,,0.00,Wunderground v.1.15,2013-10-26 22:11:00,
2013-10-26 17:16:00,43.9,26.9,30.06,WSW,250,4.0,4.0,51,0.00,,,0.00,Wunderground v.1.15,2013-10-26 22:16:00,
2013-10-26 17:26:00,44.0,28.0,30.06,West,267,3.0,4.0,53,0.00,,,0.00,Wunderground v.1.15,2013-10-26 22:26:00,
2013-10-26 17:31:00,44.1,27.6,30.05,WSW,254,2.0,4.0,52,0.00,,,0.00,Wunderground v.1.15,2013-10-26 22:31:00,
2013-10-26 17:36:00,44.0,28.4,30.05,WSW,252,2.0,4.0,54,0.00,,,0.00,Wunderground v.1.15,2013-10-26 22:36:00,
2013-10-26 17:41:00,43.9,28.3,30.05,WSW,252,1.0,1.0,54,0.00,,,0.00,Wunderground v.1.15,2013-10-26 22:41:00,
2013-10-26 17:46:00,43.8,28.7,30.04,WSW,252,0.0,1.0,55,0.00,,,0.00,Wunderground v.1.15,2013-10-26 22:46:00,
2013-10-26 17:56:00,43.5,28.8,30.05,WSW,252,0.0,0.0,56,0.00,,,0.00,Wunderground v.1.15,2013-10-26 22:56:00,
2013-10-26 18:01:00,43.2,28.5,30.04,WSW,252,0.0,0.0,56,0.00,,,0.00,Wunderground v.1.15,2013-10-26 23:01:00,
2013-10-26 18:11:00,42.7,28.5,30.04,WSW,252,0.0,0.0,57,0.00,,,0.00,Wunderground v.1.15,2013-10-26 23:11:00,
2013-10-26 18:16:00,42.3,28.1,30.03,WSW,252,0.0,0.0,57,0.00,,,0.00,Wunderground v.1.15,2013-10-26 23:16:00,
2013-10-26 18:21:00,42.0,28.3,30.03,WSW,252,0.0,0.0,58,0.00,,,0.00,Wunderground v.1.15,2013-10-26 23:21:00,
2013-10-26 18:31:00,41.1,28.3,30.03,WSW,252,0.0,1.0,60,0.00,,,0.00,Wunderground v.1.15,2013-10-26 23:31:00,
2013-10-26 18:36:00,40.6,28.2,30.02,WSW,252,0.0,1.0,61,0.00,,,0.00,Wunderground v.1.15,2013-10-26 23:36:00,
2013-10-26 18:41:00,40.1,28.1,30.02,WSW,252,0.0,1.0,62,0.00,,,0.00,Wunderground v.1.15,2013-10-26 23:41:00,
2013-10-26 18:46:00,39.6,28.4,30.02,WSW,252,0.0,1.0,64,0.00,,,0.00,Wunderground v.1.15,2013-10-26 23:46:00,
2013-10-26 18:51:00,39.1,28.3,30.02,WSW,252,0.0,0.0,65,0.00,,,0.00,Wunderground v.1.15,2013-10-26 23:51:00,
2013-10-26 18:56:00,38.6,28.6,30.02,WSW,249,1.0,1.0,67,0.00,,,0.00,Wunderground v.1.15,2013-10-26 23:56:00,
2013-10-26 19:01:00,38.2,28.6,30.01,WSW,250,1.0,1.0,68,0.00,,,0.00,Wunderground v.1.15,2013-10-27 00:01:00,
2013-10-26 19:11:00,37.4,27.8,30.01,WSW,250,0.0,0.0,68,0.00,,,0.00,Wunderground v.1.15,2013-10-27 00:11:00,
2013-10-26 19:16:00,37.0,28.1,30.01,WSW,249,0.0,0.0,70,0.00,,,0.00,Wunderground v.1.15,2013-10-27 00:16:00,
2013-10-26 19:26:00,36.2,27.7,30.01,WSW,250,0.0,1.0,71,0.00,,,0.00,Wunderground v.1.15,2013-10-27 00:26:00,
2013-10-26 19:31:00,36.0,27.8,30.00,WSW,249,0.0,1.0,72,0.00,,,0.00,Wunderground v.1.15,2013-10-27 00:31:00,
2013-10-26 19:41:00,35.5,27.4,30.00,SSW,194,1.0,1.0,72,0.00,,,0.00,Wunderground v.1.15,2013-10-27 00:41:00,
2013-10-26 19:46:00,35.3,27.5,30.00,South,190,1.0,1.0,73,0.00,,,0.00,Wunderground v.1.15,2013-10-27 00:46:00,
2013-10-26 19:51:00,35.1,27.3,29.99,South,190,1.0,1.0,73,0.00,,,0.00,Wunderground v.1.15,2013-10-27 00:51:00,
2013-10-26 19:56:00,34.9,27.1,29.99,South,191,1.0,1.0,73,0.00,,,0.00,Wunderground v.1.15,2013-10-27 00:56:00,
2013-10-26 20:01:00,34.7,26.9,29.98,South,191,1.0,1.0,73,0.00,,,0.00,Wunderground v.1.15,2013-10-27 01:01:00,
2013-10-26 20:11:00,34.4,27.0,29.98,South,191,0.0,0.0,74,0.00,,,0.00,Wunderground v.1.15,2013-10-27 01:11:00,
2013-10-26 20:16:00,34.3,26.9,29.98,South,191,0.0,0.0,74,0.00,,,0.00,Wunderground v.1.15,2013-10-27 01:16:00,
2013-10-26 20:26:00,34.1,26.7,29.97,South,190,0.0,1.0,74,0.00,,,0.00,Wunderground v.1.15,2013-10-27 01:26:00,
2013-10-26 20:31:00,34.0,26.3,29.98,South,190,1.0,2.0,73,0.00,,,0.00,Wunderground v.1.15,2013-10-27 01:31:00,
2013-10-26 20:36:00,34.0,26.3,29.97,South,190,1.0,2.0,73,0.00,,,0.00,Wunderground v.1.15,2013-10-27 01:36:00,
2013-10-26 20:41:00,33.9,26.2,29.97,South,190,1.0,1.0,73,0.00,,,0.00,Wunderground v.1.15,2013-10-27 01:41:00,
2013-10-26 20:46:00,33.6,26.2,29.97,South,190,2.0,2.0,74,0.00,,,0.00,Wunderground v.1.15,2013-10-27 01:46:00,
2013-10-26 20:56:00,33.2,26.1,29.96,South,190,1.0,3.0,75,0.00,,,0.00,Wunderground v.1.15,2013-10-27 01:56:00,
2013-10-26 21:01:00,33.2,26.1,29.95,SSE,163,2.0,2.0,75,0.00,,,0.00,Wunderground v.1.15,2013-10-27 02:01:00,
2013-10-26 21:11:00,33.2,26.1,29.95,SSE,155,2.0,2.0,75,0.00,,,0.00,Wunderground v.1.15,2013-10-27 02:11:00,
2013-10-26 21:21:00,32.8,26.1,29.94,SSE,158,1.0,1.0,76,0.00,,,0.00,Wunderground v.1.15,2013-10-27 02:21:00,
2013-10-26 21:26:00,32.8,26.1,29.94,SSE,158,1.0,1.0,76,0.00,,,0.00,Wunderground v.1.15,2013-10-27 02:26:00,
2013-10-26 21:31:00,32.7,26.0,29.94,SSE,157,1.0,3.0,76,0.00,,,0.00,Wunderground v.1.15,2013-10-27 02:31:00,
2013-10-26 21:36:00,32.7,26.3,29.94,SSE,157,2.0,3.0,77,0.00,,,0.00,Wunderground v.1.15,2013-10-27 02:36:00,
2013-10-26 21:46:00,32.5,26.1,29.94,SSE,157,2.0,2.0,77,0.00,,,0.00,Wunderground v.1.15,2013-10-27 02:46:00,
2013-10-26 21:51:00,32.2,26.1,29.93,SSE,157,1.0,1.0,78,0.00,,,0.00,Wunderground v.1.15,2013-10-27 02:51:00,
2013-10-26 21:56:00,31.9,25.8,29.93,SSE,157,1.0,3.0,78,0.00,,,0.00,Wunderground v.1.15,2013-10-27 02:56:00,
2013-10-26 22:01:00,31.5,25.7,29.92,SSE,157,1.0,3.0,79,0.00,,,0.00,Wunderground v.1.15,2013-10-27 03:01:00,
2013-10-26 22:11:00,31.3,25.8,29.92,SE,140,1.0,2.0,80,0.00,,,0.00,Wunderground v.1.15,2013-10-27 03:11:00,
2013-10-26 22:21:00,31.6,26.1,29.92,SE,141,1.0,1.0,80,0.00,,,0.00,Wunderground v.1.15,2013-10-27 03:21:00,
2013-10-26 22:31:00,31.9,26.4,29.91,SE,141,1.0,1.0,80,0.00,,,0.00,Wunderground v.1.15,2013-10-27 03:31:00,
2013-10-26 22:36:00,31.9,26.4,29.91,SE,141,1.0,2.0,80,0.00,,,0.00,Wunderground v.1.15,2013-10-27 03:36:00,
2013-10-26 22:41:00,31.9,26.4,29.91,SE,141,1.0,1.0,80,0.00,,,0.00,Wunderground v.1.15,2013-10-27 03:41:00,
2013-10-26 22:46:00,31.7,26.2,29.91,SE,141,1.0,1.0,80,0.00,,,0.00,Wunderground v.1.15,2013-10-27 03:46:00,
2013-10-26 22:56:00,31.2,26.0,29.91,SE,141,1.0,1.0,81,0.00,,,0.00,Wunderground v.1.15,2013-10-27 03:56:00,
2013-10-26 23:01:00,31.0,25.9,29.90,SE,141,1.0,2.0,81,0.00,,,0.00,Wunderground v.1.15,2013-10-27 04:01:00,
2013-10-26 23:06:00,30.9,26.1,29.90,SE,141,1.0,2.0,82,0.00,,,0.00,Wunderground v.1.15,2013-10-27 04:06:00,
2013-10-26 23:11:00,30.9,26.1,29.90,South,186,0.0,0.0,82,0.00,,,0.00,Wunderground v.1.15,2013-10-27 04:11:00,
2013-10-26 23:16:00,31.7,27.1,29.90,South,176,1.0,1.0,83,0.00,,,0.00,Wunderground v.1.15,2013-10-27 04:16:00,
2013-10-26 23:21:00,32.8,27.9,29.89,South,176,1.0,1.0,82,0.00,,,0.00,Wunderground v.1.15,2013-10-27 04:21:00,
2013-10-26 23:26:00,33.0,27.5,29.89,SSE,152,1.0,2.0,80,0.00,,,0.00,Wunderground v.1.15,2013-10-27 04:26:00,
2013-10-26 23:31:00,32.7,27.2,29.89,SSE,150,2.0,2.0,80,0.00,,,0.00,Wunderground v.1.15,2013-10-27 04:31:00,
2013-10-26 23:36:00,32.6,27.1,29.89,SSE,150,2.0,2.0,80,0.00,,,0.00,Wunderground v.1.15,2013-10-27 04:36:00,
2013-10-26 23:41:00,32.5,27.0,29.89,SSE,150,1.0,1.0,80,0.00,,,0.00,Wunderground v.1.15,2013-10-27 04:41:00,
2013-10-26 23:46:00,32.5,27.0,29.88,SSE,150,1.0,1.0,80,0.00,,,0.00,Wunderground v.1.15,2013-10-27 04:46:00,
2013-10-26 23:51:00,32.5,26.7,29.89,SSE,150,1.0,1.0,79,0.00,,,0.00,Wunderground v.1.15,2013-10-27 04:51:00,